Content
SEND FEEDBACK

Daily
Averages
Monthly
Summary
French Polynesia

HITIAA, FRENCH POLYNESIA


Home > Oceania > French Polynesia
Elevation: 7 feet     Latitude: 17 33S     Longitude: 149 37W

WEATHER
 
SELECT A DAY
Number of Records: 208,245;   Date Range: 6/30/96 - 7/28/14
 
SHARE

PRINT THIS DATA

[ ← Previous Day ]
WEATHER ALMANAC - FEBRUARY 12, 2013
[ Next Day → ]
[ °C ]   °F
Weather ElementAverageHighLow
Temperature81.4 °F88 °F (2:00 pm)77 °F (2:30 am)
Dewpoint72.6 °F75.2 °F (11:30 am)69.8 °F (12:30 am)
Humidity73.9 %83 % (2:30 am)55 % (11:00 am)
Barometer29.92 in29.96 in (8:00 am)29.86 in (4:30 pm)
Wind Speed4.9 mph13.4 mph (8:00 pm)
Weather ElementAverage
Visibility7.4 mi
Wind DirectionSSE (171.5 °)

Weather ElementTotal
Precipitation---
Cooling Degree Days17.5 (Base 65)
Growing Degree Days32.5 (Base 50)
Averaged from 54 records on February 12, 2013
WEATHER CONDITIONS BREAKOUT
WIND DIRECTION BREAKOUT
WEATHER BY HOUR - FEBRUARY 12, 2013
[ °C ]   °F
Local TimeTemperatureDewpointHumidityBarometerVisibilityWind DirectionWind SpeedGust SpeedPrecipitationEventsConditions
12:30 AM78.8 °F69.8 °F74 %29.92 in6.2 miSouth (170°)4.6 mphPartly Cloudy
1:00 AM78.8 °F69.8 °F74 %29.92 in6.2 miESE (120°)3.5 mphPartly Cloudy
1:30 AM78.8 °F69.8 °F74 %29.89 in6.2 miSE (140°)1.2 mphPartly Cloudy
2:00 AM78.0 °F71.0 °F73 %29.90 in12.0 miESE (110°)1.2 mphScattered Clouds
2:00 AM78.8 °F71.6 °F78 %29.89 in6.2 miCalmPartly Cloudy
2:30 AM77.0 °F71.6 °F83 %29.89 in6.2 miSSE (160°)2.3 mphPartly Cloudy
3:00 AM77.0 °F71.6 °F83 %29.89 in6.2 miVariable2.3 mphPartly Cloudy
3:30 AM77.0 °F69.8 °F78 %29.89 in6.2 miCalm
4:00 AM77.0 °F71.6 °F83 %29.89 in6.2 miEast (90°)3.5 mph
4:30 AM77.0 °F71.6 °F83 %29.89 in6.2 miVariable2.3 mph
5:00 AM77.0 °F71.0 °F77 %29.90 in37.0 miSouth (180°)1.2 mphClear
5:00 AM77.0 °F71.6 °F83 %29.89 in6.2 miSouth (180°)1.2 mph
5:30 AM77.0 °F69.8 °F78 %29.89 in6.2 miSouth (180°)4.6 mphPartly Cloudy
6:00 AM77.0 °F69.8 °F78 %29.92 in6.2 miSouth (180°)3.5 mphPartly Cloudy
6:30 AM77.0 °F69.8 °F78 %29.92 in6.2 miSouth (190°)5.8 mphPartly Cloudy
7:00 AM78.8 °F73.4 °F83 %29.92 in6.2 miSSW (200°)9.2 mphPartly Cloudy
7:30 AM82.4 °F73.4 °F74 %29.95 in6.2 miSSW (200°)6.9 mphPartly Cloudy
8:00 AM82.0 °F73.0 °F68 %29.96 in12.0 miSSW (200°)6.9 mphPartly Cloudy
8:00 AM82.4 °F73.4 °F74 %29.95 in6.2 miSSW (200°)6.9 mphPartly Cloudy
8:30 AM84.2 °F71.6 °F66 %29.95 in6.2 miSW (220°)6.9 mphPartly Cloudy
9:00 AM84.2 °F71.6 °F66 %29.95 in6.2 miSW (230°)4.6 mphPartly Cloudy
9:30 AM86.0 °F73.4 °F66 %29.95 in6.2 miWest (260°)4.6 mphPartly Cloudy
10:00 AM86.0 °F73.4 °F66 %29.95 in6.2 miVariable2.3 mphPartly Cloudy
10:30 AM87.8 °F73.4 °F62 %29.95 in6.2 miVariable3.5 mphPartly Cloudy
11:00 AM87.0 °F73.0 °F55 %29.96 in12.0 miNNW (330°)3.5 mphScattered Clouds
11:00 AM87.8 °F73.4 °F62 %29.95 in6.2 miNNW (330°)3.5 mphPartly Cloudy
11:30 AM84.2 °F75.2 °F74 %29.95 in6.2 miWest (280°)4.6 mphPartly Cloudy
12:00 PM86.0 °F73.4 °F66 %29.92 in6.2 miVariable2.3 mphScattered Clouds
12:30 PM86.0 °F73.4 °F66 %29.92 in6.2 miNNE (20°)6.9 mphScattered Clouds
1:00 PM86.0 °F73.4 °F66 %29.89 in6.2 miNorth (350°)5.8 mphScattered Clouds
1:30 PM86.0 °F75.2 °F70 %29.89 in6.2 miNNW (330°)8.1 mphPartly Cloudy
2:00 PM88.0 °F75.0 °F58 %29.90 in16.0 miNW (310°)5.8 mphScattered Clouds
2:10 PM87.8 °F75.2 °F66 %29.89 in6.2 miNW (310°)4.6 mphPartly Cloudy
2:30 PM87.8 °F75.2 °F66 %29.89 in6.2 miWNW (290°)5.8 mphPartly Cloudy
3:00 PM87.8 °F73.4 °F62 %29.89 in6.2 miNW (310°)4.6 mphScattered Clouds
3:30 PM80.6 °F73.4 °F79 %29.89 in6.2 miWest (270°)5.8 mphScattered Clouds
4:30 PM80.6 °F71.6 °F74 %29.86 in6.2 miWest (280°)6.9 mphScattered Clouds
5:00 PM82.0 °F74.0 °F71 %29.89 in9.0 miWest (260°)8.1 mphMostly Cloudy
5:00 PM82.4 °F73.4 °F74 %29.89 in6.2 miWest (260°)8.1 mphMostly Cloudy
5:30 PM84.2 °F73.4 °F70 %29.89 in6.2 miSW (230°)6.9 mphScattered Clouds
6:00 PM82.4 °F73.4 °F74 %29.89 in6.2 miSSW (200°)10.4 mphScattered Clouds
6:30 PM78.8 °F73.4 °F83 %29.89 in6.2 miSouth (190°)10.4 mphScattered Clouds
7:00 PM80.6 °F73.4 °F79 %29.89 in6.2 miSSW (210°)11.5 mphScattered Clouds
7:30 PM80.6 °F73.4 °F79 %29.92 in6.2 miSouth (190°)8.1 mphPartly Cloudy
8:00 PM80.0 °F74.0 °F77 %29.93 in9.0 miSSW (200°)13.4 mphScattered Clouds
8:00 PM80.6 °F73.4 °F79 %29.92 in6.2 miSSW (200°)6.9 mphScattered Clouds
8:30 PM78.8 °F73.4 °F83 %29.92 in6.2 miSSW (200°)6.9 mphScattered Clouds
9:00 PM78.8 °F73.4 °F83 %29.95 in6.2 miSSW (200°)5.8 mphScattered Clouds
9:34 PM78.8 °F71.6 °F78 %29.95 in6.2 miSouth (170°)3.5 mphScattered Clouds
10:00 PM78.8 °F71.6 °F78 %29.95 in6.2 miVariable1.2 mphScattered Clouds
10:30 PM78.8 °F73.4 °F83 %29.95 in6.2 miCalmScattered Clouds
11:00 PM79.0 °F72.0 °F75 %29.95 in9.0 miSE (130°)2.3 mphScattered Clouds
11:05 PM78.8 °F71.6 °F78 %29.95 in6.2 miVariable1.2 mphPartly Cloudy
11:30 PM78.8 °F71.6 °F78 %29.92 in6.2 miVariable2.3 mphPartly Cloudy
Hourly data recorded from NTAA, located miles away from Hitiaa, French Polynesia







STORIES FROM OUR PARTNERS